Toledo, OH

7:44 PM EST on February 15, 2019 (GMT -0500)
Toledo Express

Weather History for KTOL - February, 2019

Change the Weather History Date:

Friday, February 15, 2019

  Actual Average Record
Temperature  
Mean Temperature 36 °F 28 °F  
Max Temperature 45 °F 36 °F 70 °F (1954)
Min Temperature 25 °F 21 °F -8 °F (2007)
Degree Days  
Heating Degree Days 29 37  
Month to date heating degree days 493 573  
Since 1 July heating degree days 3949 4122  
Cooling Degree Days 0 0  
Month to date cooling degree days 0 0  
Year to date cooling degree days 0 0  
Moisture  
Dew Point 25 °F    
Average Humidity 68    
Maximum Humidity 89    
Minimum Humidity 53    
Precipitation  
Precipitation 0.05 in 0.07 in 0.94 in (1990)
Month to date precipitation 1.87 1.06  
Year to date precipitation 3.59 3.11  
Snow  
Snow 0.00 in 0.40 in - ()
Month to date snowfall 2.0 5.4  
Since 1 July snowfall 19.0 26.5  
Snow Depth 0.00 in    
Sea Level Pressure  
Sea Level Pressure 29.70 in    
Wind  
Wind Speed 15 mph ()    
Max Wind Speed 28 mph    
Max Gust Speed 35 mph    
Visibility 9.8 miles    
Events Rain    
T = Trace of Precipitation, MM = Missing Value Source: Averaged Metar Reports

Daily Weather History Graph

Daily Weather History Graph

Search for Another Location

Airport or City:

Astronomy

Feb. 15, 2019 Rise Set
Actual Time 7:30 AM EST 6:08 PM EST
Civil Twilight 7:02 AM EST 6:37 PM EST
Nautical Twilight 6:29 AM EST 7:09 PM EST
Astronomical Twilight 5:57 AM EST 7:41 PM EST
Moon 1:45 PM EST (2/15) 4:01 AM EST (2/15)
Length of Visible Light 11h 34m
Length of Day
10h 37m
Waxing Gibbous, 79% of the Moon is Illuminated
Today
Waxing Gibbous
Feb 19
Full
Feb 26
Last Quarter
Mar 6
New
Mar 14
First Quarter

Hourly Weather History & Observations

Time (EST) Temp. Windchill Dew Point Humidity Pressure Visibility Wind Dir Wind Speed Gust Speed Precip Events Conditions
12:29 AM 44.1 °F 37.7 °F 39.0 °F 82% 29.50 in 10.0 mi SW 12.7 mph - 0.03 in Rain Light Rain
12:52 AM 44.1 °F 38.1 °F 39.0 °F 82% 29.51 in 10.0 mi SW 11.5 mph - 0.04 in Rain Light Rain
1:52 AM 44.1 °F 37.7 °F 39.0 °F 82% 29.50 in 10.0 mi SW 12.7 mph - 0.01 in   Overcast
2:20 AM 44.1 °F 38.1 °F 39.0 °F 82% 29.49 in 10.0 mi SW 11.5 mph - N/A   Overcast
2:52 AM 43.0 °F 35.7 °F 39.0 °F 86% 29.51 in 10.0 mi WSW 15.0 mph - N/A   Overcast
3:15 AM 43.0 °F 35.1 °F 37.0 °F 80% 29.51 in 10.0 mi WSW 17.3 mph - N/A   Overcast
3:52 AM 42.1 °F 33.1 °F 35.1 °F 76% 29.53 in 10.0 mi West 20.7 mph - N/A   Overcast
4:52 AM 39.0 °F 30.6 °F 32.0 °F 76% 29.58 in 9.0 mi West 15.0 mph - N/A   Overcast
5:52 AM 37.0 °F 28.5 °F 28.9 °F 73% 29.61 in 8.0 mi West 13.8 mph 26.5 mph N/A   Overcast
6:52 AM 35.1 °F 24.1 °F 27.0 °F 72% 29.65 in 10.0 mi West 19.6 mph - N/A   Overcast
7:52 AM 34.0 °F 23.0 °F 24.1 °F 67% 29.66 in 10.0 mi West 18.4 mph 27.6 mph N/A   Overcast
8:41 AM 33.1 °F 22.6 °F 24.1 °F 70% 29.68 in 9.0 mi West 16.1 mph 23.0 mph N/A   Overcast
8:52 AM 33.1 °F 22.2 °F 24.1 °F 70% 29.70 in 9.0 mi West 17.3 mph 26.5 mph N/A   Overcast
9:52 AM 32.0 °F 19.5 °F 19.0 °F 59% 29.73 in 10.0 mi West 21.9 mph 28.8 mph N/A   Overcast
10:52 AM 30.9 °F 17.2 °F 19.0 °F 61% 29.76 in 10.0 mi West 25.3 mph 31.1 mph N/A   Overcast
11:08 AM 30.9 °F 18.1 °F 19.0 °F 61% 29.75 in 10.0 mi West 21.9 mph 27.6 mph N/A   Overcast
11:52 AM 30.0 °F 17.2 °F 18.0 °F 61% 29.78 in 10.0 mi West 20.7 mph 29.9 mph N/A   Mostly Cloudy
12:39 PM 30.9 °F 17.8 °F 17.1 °F 57% 29.77 in 10.0 mi West 23.0 mph 28.8 mph N/A   Scattered Clouds
12:52 PM 30.9 °F 17.5 °F 17.1 °F 57% 29.79 in 10.0 mi West 24.2 mph 32.2 mph N/A   Scattered Clouds
1:05 PM 30.0 °F 16.9 °F 16.0 °F 56% 29.78 in 10.0 mi WNW 21.9 mph 27.6 mph N/A   Mostly Cloudy
1:52 PM 30.0 °F 18.7 °F 16.0 °F 56% 29.82 in 10.0 mi West 16.1 mph 28.8 mph N/A   Overcast
2:52 PM 30.0 °F 17.5 °F 17.1 °F 59% 29.85 in 10.0 mi West 19.6 mph 31.1 mph N/A   Mostly Cloudy
3:07 PM 30.0 °F 16.6 °F 16.0 °F 56% 29.84 in 10.0 mi West 23.0 mph 31.1 mph N/A   Scattered Clouds
3:52 PM 30.0 °F 16.9 °F 16.0 °F 56% 29.86 in 10.0 mi West 21.9 mph 27.6 mph N/A   Clear
4:52 PM 28.9 °F 17.3 °F 16.0 °F 58% 29.90 in 10.0 mi WNW 16.1 mph - N/A   Partly Cloudy
5:52 PM 27.0 °F 15.6 °F 16.0 °F 63% 29.91 in 10.0 mi West 13.8 mph - N/A   Partly Cloudy
6:52 PM 25.0 °F 13.6 °F 15.1 °F 66% 29.93 in 10.0 mi West 12.7 mph - N/A   Scattered Clouds